Location: Unspecified
(40.7945°N, 111.1337°W)
Time: 20:58:57
(UTC-06:00)

Altair - Pass Details

Date: 02 July 2019
Orbit: 1501 x 1683 km, 47.2° (Epoch: 12 October)

Event Time Altitude Azimuth Distance (km) Brightness Sun altitude
Rises 02:56:22 0° 290° (WNW) 4,843 10.1 -23.0°
Reaches altitude 10° 03:00:48 10° 273° (W) 3,882 9.4 -22.7°
Enters shadow 03:04:44 17° 250° (WSW) 3,379 8.9 -22.4°
